Stations météo

Publicité
Agen, France (7524): Température de l'air & dewpoint: 14.09.2018 06:00:00 - 20.09.2018 06:00:00 (CEST)Agen, France (7524): Température de l'air 5cm: 14.09.2018 06:00:00 - 20.09.2018 06:00:00 (CEST)Agen, France (7524): Température de l'air -20cm & Température de l'air -100cm: 14.09.2018 06:00:00 - 20.09.2018 06:00:00 (CEST)Agen, France (7524): Vitesse du vent & gusts: 14.09.2018 06:00:00 - 20.09.2018 06:00:00 (CEST)Agen, France (7524): Direction du vent: 14.09.2018 06:00:00 - 20.09.2018 06:00:00 (CEST)Agen, France (7524): reduced air pressure: 14.09.2018 06:00:00 - 20.09.2018 06:00:00 (CEST)Agen, France (7524): visibility: 14.09.2018 06:00:00 - 20.09.2018 06:00:00 (CEST)Agen, France (7524): Ensoleillement: 14.09.2018 06:00:00 - 20.09.2018 06:00:00 (CEST)Agen, France (7524): Quantités de précipitations: 14.09.2018 06:00:00 - 20.09.2018 06:00:00 (CEST)
Date & Time tt [°C] td [°C] tt 5cm [°C] tt -20cm [°C] tt -100cm [°C] ff [km/h] ff [knt] fx [km/h] fx [knt] dd ppp [hPa] vv [km] sd [min] rr [mm]
20.09.2018 06:00:00 15,3 14,7 12,0 20,7 19,7 5 3 7 4 NW 1020,7 14 0 0,0
20.09.2018 05:00:00 16,0 15,4 12,0 20,8 19,8 2 1 5 3 NNW 1020,7 10 0 0,0
20.09.2018 04:00:00 16,4 15,4 12,5 20,9 19,8 3 1 4 2 N 1020,8 16 0 0,0
20.09.2018 03:00:00 17,4 16,1 12,8 21,0 19,7 0 0 9 5 N 1020,9 23 0 0,0
20.09.2018 02:00:00 18,4 16,9 13,5 21,1 19,7 6 4 10 5 WNW 1020,9 25 0 0,0
20.09.2018 01:00:00 17,9 16,2 13,6 21,1 19,7 2 1 5 3 W 1020,8 14 0 0,0
20.09.2018 00:00:00 18,4 15,6 14,4 21,2 19,7 3 2 7 4 WSW 1021,0 27 0 0,0
19.09.2018 23:00:00 20,2 16,6 14,8 21,2 19,7 3 1 6 4 WSW 1020,9 32 0 0,0
19.09.2018 22:00:00 21,5 16,5 15,7 21,2 19,7 4 2 14 7 W 1020,4 33 0 0,0
19.09.2018 21:00:00 22,4 16,2 16,8 21,1 19,7 0 0 7 4 N 1019,9 37 0 0,0
19.09.2018 20:00:00 27,1 16,1 21,1 21,0 19,7 4 2 10 6 WNW 1019,5 52 34 0,0
19.09.2018 19:00:00 29,2 15,3 28,2 20,9 19,7 5 3 15 8 NW 1019,4 58 60 0,0
19.09.2018 18:00:00 30,0 15,7 34,2 20,8 19,7 7 4 19 10 NW 1019,2 47 60 0,0
19.09.2018 17:00:00 30,1 15,8 38,9 20,6 19,7 5 3 19 11 SW 1019,3 20 60 0,0
19.09.2018 16:00:00 29,7 16,8 40,8 20,5 19,7 8 4 19 10 E 1019,7 40 60 0,0
19.09.2018 15:00:00 27,9 17,4 43,1 20,4 19,7 10 5 19 10 NE 1020,3 30 60 0,0
19.09.2018 14:00:00 26,5 18,6 40,7 20,4 19,7 9 5 19 10 ENE 1020,8 26 60 0,0
19.09.2018 13:00:00 24,7 18,6 35,0 20,3 19,7 11 6 24 13 ENE 1021,6 19 60 0,0
19.09.2018 12:00:00 22,6 18,2 27,6 20,3 19,7 14 7 24 13 E 1021,7 19 60 0,0
19.09.2018 11:00:00 20,7 18,1 21,5 20,3 19,7 8 5 16 8 SSE 1021,8 17 8 0,0
19.09.2018 10:00:00 19,0 18,3 18,3 20,4 19,7 6 3 13 7 S 1021,5 14 0 0,0
19.09.2018 09:00:00 17,2 17,0 12,9 20,5 19,7 3 2 7 4 E 1021,0 13 0 0,0
19.09.2018 08:00:00 15,9 15,6 12,7 20,6 19,7 0 0 9 5 N 1020,4 11 0 0,0
19.09.2018 07:00:00 15,5 15,0 12,6 20,7 19,7 6 3 8 5 ESE 1019,7 12 0 0,0
19.09.2018 06:00:00 16,2 15,4 12,7 20,7 19,7 3 2 8 4 WSW 1019,5 18 0 0,0
19.09.2018 05:00:00 16,6 15,6 13,1 20,8 19,7 0 0 5 3 N 1019,6 27 0 0,0
19.09.2018 04:00:00 17,4 16,1 14,1 20,8 19,7 5 3 8 4 E 1019,1 25 0 0,0
19.09.2018 03:00:00 18,3 16,5 15,0 20,9 19,7 6 3 18 10 E 1019,0 28 0 0,0
19.09.2018 02:00:00 18,0 15,6 14,5 21,0 19,7 4 2 12 6 SE 1018,6 37 0 0,0
19.09.2018 01:00:00 18,8 16,6 14,6 21,0 19,7 3 2 6 3 S 1018,9 31 0 0,0
19.09.2018 00:00:00 19,2 16,4 15,4 21,1 19,7 4 2 6 3 S 1018,6 32 0 0,0
18.09.2018 23:00:00 20,8 16,8 16,3 21,1 19,7 3 1 13 7 SSE 1018,2 34 0 0,0
18.09.2018 22:00:00 22,1 16,8 17,2 21,1 19,7 4 2 7 4 SSE 1017,6 42 0 0,0
18.09.2018 21:00:00 23,3 16,8 18,1 21,1 19,7 2 1 8 4 SSW 1016,6 8 0 0,0
18.09.2018 20:00:00 26,4 16,6 21,3 21,0 19,7 4 2 8 5 SSW 1015,8 19 0 0,0
18.09.2018 19:00:00 29,0 16,2 27,9 20,8 19,7 6 3 15 8 E 1015,3 56 26 0,0
18.09.2018 18:00:00 29,9 15,6 30,9 20,7 19,7 5 3 24 13 ENE 1015,0 48 51 0,0
18.09.2018 17:00:00 29,7 15,0 34,1 20,6 19,7 10 5 24 13 ENE 1015,2 58 48 0,0
18.09.2018 16:00:00 29,8 16,9 34,7 20,5 19,7 13 7 26 14 E 1015,4 53 37 0,0
18.09.2018 15:00:00 29,6 16,8 38,9 20,3 19,7 13 7 31 17 E 1015,8 60 60 0,0
18.09.2018 14:00:00 28,4 17,6 36,1 20,3 19,7 14 8 29 15 ESE 1016,0 60 52 0,0
18.09.2018 13:00:00 27,6 18,0 35,5 20,2 19,7 15 8 30 16 E 1016,4 36 60 0,0
18.09.2018 12:00:00 26,0 17,1 30,8 20,2 19,7 18 10 37 20 ESE 1016,9 35 60 0,0
18.09.2018 11:00:00 24,0 17,7 25,8 20,3 19,7 16 9 30 16 ESE 1017,4 35 57 0,0
18.09.2018 10:00:00 21,2 17,6 19,1 20,3 19,7 12 7 18 10 ESE 1017,3 20 51 0,0
18.09.2018 09:00:00 18,8 17,1 16,1 20,4 19,7 9 5 18 10 ESE 1016,9 25 6 0,0
18.09.2018 08:00:00 17,4 16,4 15,8 20,4 19,7 9 5 15 8 E 1016,1 19 0 0,0
18.09.2018 07:00:00 17,5 16,7 16,1 20,5 19,7 9 5 19 10 ESE 1016,0 19 0 0,0
18.09.2018 06:00:00 18,0 17,0 16,1 20,5 19,7 10 6 15 8 E 1015,7 23 0 0,0
18.09.2018 05:00:00 18,1 16,6 15,1 20,6 19,7 9 5 15 8 SE 1015,5 31 0 0,0
18.09.2018 04:00:00 17,3 15,8 14,3 20,7 19,7 7 4 11 6 E 1015,7 32 0 0,0
18.09.2018 03:00:00 18,3 16,1 14,8 20,7 19,7 0 0 10 6 N 1016,2 40 0 0,0
18.09.2018 02:00:00 19,3 16,1 17,6 20,7 19,7 11 6 26 14 ESE 1015,6 40 0 0,0
18.09.2018 01:00:00 20,4 17,2 18,7 20,7 19,7 18 10 27 15 ESE 1015,0 36 0 0,0
18.09.2018 00:00:00 20,5 17,7 18,0 20,8 19,7 16 9 20 11 ESE 1015,1 37 0 0,0
17.09.2018 23:00:00 22,2 17,6 18,2 20,8 19,7 8 4 19 11 SE 1015,4 44 0 0,0
17.09.2018 22:00:00 24,1 17,3 22,4 20,7 19,7 15 8 25 14 ESE 1014,6 50 0 0,0
17.09.2018 21:00:00 26,0 16,0 24,2 20,7 19,7 18 10 32 17 SE 1014,1 57 0 0,0
17.09.2018 20:00:00 27,8 15,5 26,1 20,6 19,7 18 10 32 18 SE 1013,2 59 43 0,0
17.09.2018 19:00:00 30,0 14,9 29,6 20,5 19,7 18 10 30 16 SE 1013,2 60 60 0,0
17.09.2018 18:00:00 31,3 14,4 33,0 20,3 19,7 20 11 37 20 SE 1013,5 39 60 0,0
17.09.2018 17:00:00 32,1 14,3 36,3 20,2 19,7 20 11 36 20 SE 1013,9 38 60 0,0
17.09.2018 16:00:00 31,9 15,8 38,7 20,0 19,7 17 9 49 26 SSE 1014,6 29 60 0,0
17.09.2018 15:00:00 31,5 17,0 37,3 19,9 19,7 21 12 44 24 ESE 1015,4 25 56 0,0
17.09.2018 14:00:00 30,0 18,1 37,8 19,8 19,7 23 12 35 19 ESE 1016,2 23 58 0,0
17.09.2018 13:00:00 28,5 18,9 34,9 19,8 19,7 18 10 31 17 ESE 1017,0 23 56 0,0
17.09.2018 12:00:00 25,8 18,0 31,1 19,8 19,7 19 11 36 20 SE 1017,8 20 56 0,0
17.09.2018 11:00:00 24,1 18,5 24,4 19,8 19,7 20 11 31 17 ESE 1018,3 20 57 0,0
17.09.2018 10:00:00 20,7 17,9 19,4 19,8 19,7 18 10 29 15 ESE 1018,8 39 45 0,0
17.09.2018 09:00:00 19,3 17,8 17,7 19,8 19,7 9 5 14 7 E 1018,8 25 21 0,0
17.09.2018 08:00:00 18,3 17,8 17,5 19,8 19,7 5 3 10 5 S 1019,0 14 0 0,0
17.09.2018 07:00:00 18,0 17,5 14,0 19,9 19,7 4 2 6 3 SSE 1019,1 14 0 0,0
17.09.2018 06:00:00 17,9 16,9 14,0 19,9 19,7 0 0 16 8 N 1018,9 12 0 0,0
17.09.2018 05:00:00 18,7 17,7 16,5 19,9 19,7 4 2 8 4 S 1019,3 17 0 0,0
17.09.2018 04:00:00 19,2 17,9 16,7 20,0 19,7 6 3 11 6 WSW 1019,3 7 0 0,0
17.09.2018 03:00:00 19,5 18,0 15,9 20,0 19,7 9 5 13 7 W 1019,8 12 0 0,0
17.09.2018 02:00:00 19,9 17,7 15,4 20,0 19,7 8 4 17 9 W 1019,9 17 0 0,0
17.09.2018 01:00:00 18,2 15,3 14,7 20,1 19,7 6 4 10 5 W 1020,1 40 0 0,0
17.09.2018 00:00:00 18,3 14,4 14,1 20,1 19,7 5 3 8 4 W 1020,2 55 0 0,0
16.09.2018 23:00:00 19,4 14,2 14,9 20,1 19,7 2 1 10 5 NE 1020,3 60 0 0,0
16.09.2018 22:00:00 20,3 14,6 15,4 20,1 19,7 7 4 11 6 W 1020,1 60 0 0,0
16.09.2018 21:00:00 22,4 14,5 16,5 20,0 19,7 2 1 6 4 S 1019,2 23 0 0,0
16.09.2018 20:00:00 26,1 13,2 20,5 19,9 19,8 5 3 12 7 NNW 1018,6 60 0 0,0
16.09.2018 19:00:00 28,2 12,9 26,9 19,8 19,8 8 4 15 8 N 1018,3 60 12 0,0
16.09.2018 18:00:00 29,2 12,6 31,8 19,6 19,7 9 5 20 11 N 1018,4 58 52 0,0
16.09.2018 17:00:00 30,0 12,0 39,1 19,5 19,7 11 6 26 14 N 1018,3 60 60 0,0
16.09.2018 16:00:00 29,5 12,0 42,3 19,3 19,7 12 7 24 13 NNW 1018,7 60 60 0,0
16.09.2018 15:00:00 28,8 12,2 45,6 19,1 19,7 7 4 16 9 NNW 1018,9 60 60 0,0
16.09.2018 14:00:00 28,0 13,5 44,5 19,1 19,7 8 4 18 10 NE 1019,3 60 60 0,0
16.09.2018 13:00:00 26,4 14,2 37,2 19,0 19,7 9 5 22 12 ENE 1019,7 20 60 0,0
16.09.2018 12:00:00 24,3 15,0 31,7 19,1 19,7 11 6 22 12 E 1020,3 56 60 0,0
16.09.2018 11:00:00 21,0 13,9 22,6 19,2 19,8 10 5 16 9 E 1020,5 41 60 0,0
16.09.2018 10:00:00 17,3 13,8 14,6 19,2 19,8 8 5 13 7 ESE 1020,8 58 60 0,0
16.09.2018 09:00:00 13,9 13,6 8,2 19,3 19,8 8 5 11 6 E 1020,6 51 36 0,2
16.09.2018 08:00:00 11,1 10,8 7,1 19,4 19,8 5 3 9 5 E 1020,3 46 0 0,0
16.09.2018 07:00:00 10,9 10,4 7,2 19,5 19,7 7 4 8 5 E 1019,7 42 0 0,0
16.09.2018 06:00:00 11,5 10,9 8,1 19,6 19,8 6 4 8 4 ESE 1019,3 40 0 0,0
16.09.2018 05:00:00 12,0 11,1 7,8 19,7 19,8 7 4 8 5 ESE 1019,0 60 0 0,0
16.09.2018 04:00:00 12,0 10,7 7,9 19,8 19,7 4 2 8 4 ESE 1019,6 60 0 0,0
16.09.2018 03:00:00 11,7 10,3 7,5 19,9 19,8 8 4 10 6 ESE 1020,0 60 0 0,0
16.09.2018 02:00:00 12,7 11,1 7,7 20,0 19,8 2 1 5 3 SSE 1020,6 55 0 0,0
16.09.2018 01:00:00 13,1 11,0 8,4 20,1 19,8 0 0 3 2 N 1020,6 60 0 0,0
16.09.2018 00:00:00 14,8 11,6 9,6 20,2 19,8 0 0 2 1 N 1020,8 60 0 0,0
15.09.2018 23:00:00 16,2 12,0 11,1 20,2 19,8 0 0 6 3 N 1020,7 60 0 0,0
15.09.2018 22:00:00 17,7 11,9 11,8 20,2 19,8 3 2 5 3 WNW 1020,5 60 0 0,0
15.09.2018 21:00:00 20,0 11,5 13,8 20,1 19,8 2 1 7 4 SSW 1020,4 57 0 0,0
15.09.2018 20:00:00 24,4 9,9 18,5 20,0 19,7 3 2 14 8 NE 1020,0 60 47 0,0
15.09.2018 19:00:00 26,8 9,6 26,1 20,0 19,8 6 3 17 9 N 1019,8 58 48 0,0
15.09.2018 18:00:00 25,9 10,9 26,9 19,8 19,8 8 4 21 12 N 1019,9 60 35 0,0
15.09.2018 17:00:00 27,8 10,0 35,3 19,7 19,8 7 4 24 13 NW 1020,1 60 55 0,0
15.09.2018 16:00:00 26,4 10,9 35,3 19,6 19,8 8 4 23 12 WNW 1020,7 54 49 0,0
15.09.2018 15:00:00 26,3 12,0 40,8 19,5 19,8 12 6 37 20 NNW 1021,2 47 60 0,0
15.09.2018 14:00:00 25,7 12,5 40,4 19,4 19,7 7 4 18 10 WNW 1021,6 60 57 0,0
15.09.2018 13:00:00 24,0 13,2 42,0 19,5 19,8 7 4 18 10 NNE 1022,2 60 60 0,0
15.09.2018 12:00:00 22,4 13,7 32,6 19,5 19,8 5 3 14 8 NW 1022,9 43 60 0,0
15.09.2018 11:00:00 20,3 13,0 23,1 19,5 19,8 4 2 11 6 N 1023,3 56 60 0,0
15.09.2018 10:00:00 17,1 13,2 14,8 19,6 19,8 3 2 9 5 WNW 1023,5 53 60 0,0
15.09.2018 09:00:00 13,6 13,1 7,7 19,7 19,8 0 0 6 3 N 1023,1 36 60 0,0
15.09.2018 08:00:00 11,0 10,5 6,5 19,8 19,8 4 2 6 3 WSW 1023,0 14 3 0,0
15.09.2018 07:00:00 11,4 10,8 6,6 19,9 19,8 4 2 4 2 WNW 1022,6 36 0 0,0
15.09.2018 06:00:00 12,1 11,2 7,9 20,0 19,8 3 1 5 3 N 1022,5 50 0 0,0
15.09.2018 05:00:00 12,5 11,6 8,7 20,1 19,8 4 2 6 3 NW 1022,2 59 0 0,0
15.09.2018 04:00:00 13,9 12,3 9,2 20,2 19,8 4 2 10 5 W 1022,1 60 0 0,0
15.09.2018 03:00:00 13,3 11,5 9,1 20,3 19,8 4 2 8 4 WNW 1022,4 60 0 0,0
15.09.2018 02:00:00 15,3 12,6 9,7 20,4 19,8 5 3 8 4 W 1022,7 60 0 0,0
15.09.2018 01:00:00 14,8 12,5 9,7 20,5 19,8 5 3 8 5 WNW 1022,6 60 0 0,0
15.09.2018 00:00:00 17,6 12,7 11,9 20,5 19,8 6 4 10 6 W 1022,3 60 0 0,0
14.09.2018 23:00:00 19,1 13,3 12,6 20,5 19,8 8 4 11 6 W 1022,1 60 0 0,0
14.09.2018 22:00:00 19,5 13,2 14,1 20,5 19,8 6 4 9 5 W 1021,8 60 0 0,0
14.09.2018 21:00:00 20,5 13,0 14,9 20,5 19,8 5 3 13 7 W 1021,2 60 0 0,0
14.09.2018 20:00:00 22,6 12,5 19,3 20,5 19,7 5 3 15 8 NW 1020,5 60 28 0,0
14.09.2018 19:00:00 23,5 13,4 22,8 20,4 19,8 8 4 18 10 NW 1020,2 57 35 0,0
14.09.2018 18:00:00 25,6 13,1 30,1 20,3 19,8 12 7 37 20 W 1020,3 60 60 0,0
14.09.2018 17:00:00 25,8 12,6 29,0 20,2 19,7 14 7 27 14 NW 1020,3 42 42 0,0
14.09.2018 16:00:00 24,8 13,0 31,6 20,1 19,8 11 6 33 18 WNW 1020,5 60 14 0,0
14.09.2018 15:00:00 24,7 12,0 35,0 20,1 19,8 16 9 33 18 NW 1020,7 60 47 0,0
14.09.2018 14:00:00 25,0 12,2 33,3 20,0 19,8 14 8 27 15 NNW 1021,2 50 44 0,0
14.09.2018 13:00:00 23,1 16,4 35,6 20,0 19,8 8 4 17 9 NNW 1021,5 29 56 0,0
14.09.2018 12:00:00 20,2 17,0 22,0 20,0 19,8 7 4 13 7 WNW 1021,8 23 9 0,0
14.09.2018 11:00:00 17,9 16,8 19,0 20,0 19,7 5 3 14 7 NW 1021,9 18 0 0,0
14.09.2018 10:00:00 16,7 16,4 17,1 20,1 19,8 5 3 13 7 W 1021,6 15 0 0,0
14.09.2018 09:00:00 16,0 15,8 15,8 20,1 19,8 8 5 13 7 WNW 1021,3 4,3 0 0,0
14.09.2018 08:00:00 15,6 15,3 15,8 20,2 19,8 11 6 17 9 WNW 1021,1 1,7 0 0,0
14.09.2018 07:00:00 16,0 15,4 15,4 20,2 19,8 9 5 15 8 W 1020,9 7 0 0,0
14.09.2018 06:00:00 16,2 15,2 13,7 20,2 19,8 7 4 11 6 WSW 1020,8 22 0 0,0

tt = Température de l'air
td = dewpoint
tt 5cm = Température de l'air 5cm
tt -20cm = Température de l'air -20cm
tt -100cm = Température de l'air -100cm
ff = Vitesse du vent
fx = gusts
dd = Direction du vent
ppp = reduced air pressure
vv = visibility
sd = Ensoleillement
rr = Quantités de précipitations

stations d'obs. à proximité